Regional Weather Roundup
Issued by NWS

Home | Current Version | Previous Version | Graphics & Text | Print | Product List | Glossary On
Versions: 1 2 3 4 5 6 7 8 9 10 11 12 13 14 15 16 17 18 19 20 21 22 23 24 25 26 27 28 29 30 31 32 33 34 35 36 37 38 39 40 41 42 43 44 45 46 47 48 49 50
753
ASUS45 KCYS 131710
RWRWY

WYOMING REGIONAL WEATHER ROUNDUP
NATIONAL WEATHER SERVICE CHEYENNE WY
1000 AM MST WED DEC 13 2017

NOTE:  "FAIR" INDICATES FEW OR NO CLOUDS BELOW 12,000 FEET
WITH NO SIGNIFICANT WEATHER AND/OR OBSTRUCTIONS TO VISIBILITY.

WYZ001-131800-
YELLOWSTONE NATIONAL PARK

CITY           SKY/WX    TMP DP  RH WIND       PRES   REMARKS
LK YELLOWSTONE   N/A     18  16  92 CALM      30.24S
W YELLOWSTONE  NOT AVBL

$$
WYZ002>013-054>058-071-098>099-131800-
NORTHERN WYOMING

CITY           SKY/WX    TMP DP  RH WIND       PRES   REMARKS
JACKSON        CLOUDY    23  17  78 S3        30.26F
CODY           CLOUDY    38  15  39 CALM      30.19F
GREYBULL       FAIR      28  18  66 SE3       30.19F
WORLAND        FAIR      34  18  52 S6        30.19F WCI  29
SHERIDAN       FAIR      46  17  31 NW18      30.17S
BUFFALO        FAIR      45  12  26 N9        30.16S
GILLETTE       FAIR      40  16  37 NW15      30.14S WCI  32
HULETT         FAIR      36  19  51 NW14G20   30.14S WCI  27
NEWCASTLE      FAIR      37  16  41 NW23G31   30.10S WCI  26

$$
WYZ014>020-022>026-101>103-131800-
CENTRAL WYOMING

CITY           SKY/WX    TMP DP  RH WIND       PRES   REMARKS
BIG PINEY      CLOUDY    32   6  33 S3        30.22S
PINEDALE       CLOUDY    32   5  32 NW5       30.22S WCI  27
DUBOIS         CLOUDY    36   0  21 NW16      30.16F WCI  26
LANDER         CLOUDY    36  19  50 NW5       30.18S WCI  32
RIVERTON       CLOUDY    40  14  34 CALM      30.19S
CASPER         FAIR      35  20  54 W3        30.19S
DOUGLAS        FAIR      41  17  38 NW16      30.17S

$$
WYZ021-027>030-104>119-131800-
SOUTHERN WYOMING

CITY           SKY/WX    TMP DP  RH WIND       PRES   REMARKS
EVANSTON       CLOUDY    32   8  36 SW12      30.25F WCI  23
FORT BRIDGER   CLOUDY    39   4  23 W6        30.27S WCI  34
ROCK SPRINGS   CLOUDY    37   2  22 SW9       30.22F WCI  30
DIXON          CLOUDY    30  21  70 SE6       30.25F WCI  24
RAWLINS        FAIR      38  10  31 CALM      30.20F
SARATOGA       FAIR      34  12  40 S8        30.22S WCI  27
LARAMIE        FAIR      37   9  31 SE7       30.17S WCI  32
CHEYENNE       FAIR      41  10  28 N9        30.16S
TORRINGTON     FAIR      43  15  32 NW16G26   30.14S
PINE BLUFFS    FAIR      43  10  26 NW21G30   30.17R

$$




USA.gov is the U.S. government's official web portal to all federal, state and local government web resources and services.